Baileyville, IL

9:54 AM CST on February 10, 2016 (GMT -0600)
Albertus

Weather History for KFEP - June, 2013

Change the Weather History Date:

Tuesday, June 25, 2013

  Actual Average Record
Temperature  
Mean Temperature 74 °F -  
Max Temperature 84 °F 82 °F 93 °F (1983)
Min Temperature 65 °F 59 °F 42 °F (2004)
Cooling Degree Days 8    
Growing Degree Days 24 (Base 50)    
Moisture  
Dew Point 70 °F    
Average Humidity 90    
Maximum Humidity 94    
Minimum Humidity 81    
Precipitation  
Precipitation 0.42 in - - ()
Sea Level Pressure  
Sea Level Pressure 29.89 in    
Wind  
Wind Speed 7 mph (SE)    
Max Wind Speed 20 mph    
Max Gust Speed 23 mph    
Visibility 9 miles    
Events Rain , Thunderstorm    
Averages and records for this station are not official NWS values.
T = Trace of Precipitation, MM = Missing Value Source: NWS Daily Summary

Daily Weather History Graph

Daily Weather History Graph

Search for Another Location

Airport or City:

Trip Planner

Search our weather history database for the weather conditions in past years. The results will help you decide how hot, cold, wet, or windy it might be!

Date:

Astronomy

Jun. 25, 2013 Rise Set
Actual Time 5:23 AM CDT 8:38 PM CDT
Civil Twilight 4:48 AM CDT 9:13 PM CDT
Nautical Twilight 4:03 AM CDT 9:58 PM CDT
Astronomical Twilight 3:09 AM CDT 10:52 PM CDT
Moon 10:20 PM CDT (6/25) 8:06 AM CDT (6/25)
Length of Visible Light 16h 25m
Length of Day
15h 15m
Waning Gibbous, 92% of the Moon is Illuminated
Jun 25
Waning Gibbous
Jun 29
Last Quarter
Jul 8
New
Jul 15
First Quarter
Jul 22
Full

Hourly Weather History & Observations

Time (CDT) Temp. Heat Index Dew Point Humidity Pressure Visibility Wind Dir Wind Speed Gust Speed Precip Events Conditions
12:15 AM 67.1 °F - 64.4 °F 91% 29.93 in 10.0 mi SE 5.8 mph - N/A   Scattered Clouds
12:35 AM 66.6 °F - 64.4 °F 93% 29.92 in 10.0 mi SE 3.5 mph - N/A   Scattered Clouds
12:55 AM 67.1 °F - 64.4 °F 91% 29.91 in 10.0 mi SSE 10.4 mph - N/A   Scattered Clouds
1:15 AM 68.7 °F - 64.2 °F 86% 29.91 in 10.0 mi SSE 11.5 mph - N/A Thunderstorm Scattered Clouds
1:35 AM 69.3 °F - 64.4 °F 84% 29.93 in 10.0 mi South 8.1 mph - N/A Thunderstorm Mostly Cloudy
1:55 AM 69.3 °F - 65.3 °F 87% 29.97 in 10.0 mi NNW 15.0 mph 23.0 mph N/A Thunderstorm Thunderstorm
2:15 AM 66.4 °F - 63.9 °F 92% 29.99 in 4.0 mi NNW 11.5 mph 16.1 mph N/A Rain , Thunderstorm Heavy Thunderstorms and Rain
2:35 AM 65.3 °F - 63.5 °F 94% 29.95 in 1.8 mi ESE 9.2 mph - N/A Rain , Thunderstorm Light Thunderstorms and Rain
2:55 AM 65.3 °F - 63.5 °F 94% 29.94 in 10.0 mi ESE 4.6 mph - N/A Rain , Thunderstorm Light Thunderstorms and Rain
3:15 AM 65.3 °F - 63.5 °F 94% 29.92 in 10.0 mi ESE 4.6 mph - N/A   Overcast
3:35 AM 65.5 °F - 63.7 °F 94% 29.91 in 10.0 mi ESE 8.1 mph - N/A   Mostly Cloudy
3:55 AM 65.7 °F - 63.9 °F 94% 29.91 in 10.0 mi ESE 5.8 mph - 0.01 in   Mostly Cloudy
4:15 AM 65.5 °F - 63.7 °F 94% 29.91 in 10.0 mi East 5.8 mph - N/A   Mostly Cloudy
4:35 AM 65.7 °F - 63.9 °F 94% 29.92 in 10.0 mi ENE 4.6 mph - N/A   Mostly Cloudy
4:55 AM 65.3 °F - 63.5 °F 94% 29.92 in 10.0 mi NE 9.2 mph - N/A   Mostly Cloudy
5:15 AM 65.3 °F - 63.5 °F 94% 29.92 in 7.0 mi NE 10.4 mph - N/A   Overcast
5:35 AM 65.3 °F - 63.5 °F 94% 29.92 in 7.0 mi ENE 9.2 mph - N/A   Overcast
5:55 AM 65.7 °F - 63.9 °F 94% 29.91 in 10.0 mi East 5.8 mph - N/A   Mostly Cloudy
6:15 AM 66.6 °F - 64.8 °F 94% 29.91 in 10.0 mi NE 11.5 mph - N/A   Overcast
6:35 AM 66.6 °F - 64.8 °F 94% 29.91 in 10.0 mi ENE 10.4 mph - N/A   Overcast
6:55 AM 66.6 °F - 64.8 °F 94% 29.90 in 10.0 mi ENE 6.9 mph - N/A   Overcast
7:15 AM 67.3 °F - 65.3 °F 93% 29.92 in 10.0 mi East 4.6 mph - N/A Thunderstorm Overcast
7:35 AM 67.3 °F - 65.3 °F 93% 29.94 in 10.0 mi SE 10.4 mph - N/A Thunderstorm Thunderstorm
7:55 AM 67.8 °F - 65.7 °F 93% 29.95 in 3.0 mi Calm Calm - N/A Rain , Thunderstorm Heavy Thunderstorms and Rain
8:15 AM 67.5 °F - 65.5 °F 93% 29.94 in 7.0 mi Calm Calm - N/A Rain , Thunderstorm Thunderstorms and Rain
8:35 AM 67.1 °F - 65.3 °F 94% 29.97 in 7.0 mi SW 4.6 mph - N/A Rain , Thunderstorm Light Thunderstorms and Rain
8:55 AM 66.7 °F - 64.8 °F 93% 29.96 in 7.0 mi Calm Calm - N/A Rain , Thunderstorm Thunderstorms and Rain
9:15 AM 67.1 °F - 65.3 °F 94% 29.98 in 10.0 mi South 5.8 mph - N/A Rain , Thunderstorm Light Thunderstorms and Rain
9:35 AM 67.5 °F - 65.7 °F 94% 29.94 in 10.0 mi South 3.5 mph - N/A   Clear
9:55 AM 68.7 °F - 66.9 °F 94% 29.91 in 10.0 mi SE 4.6 mph - 0.01 in   Clear
10:15 AM 70.5 °F - 68.5 °F 93% 29.90 in 10.0 mi South 9.2 mph - N/A   Clear
10:35 AM 72.9 °F - 70.3 °F 92% 29.91 in 10.0 mi SSE 10.4 mph - 0.01 in   Clear
10:55 AM 74.3 °F - 71.6 °F 91% 29.89 in 10.0 mi SE 16.1 mph - 0.02 in   Clear
11:15 AM 74.3 °F - 70.2 °F 87% 29.88 in 10.0 mi SSE 19.6 mph - N/A   Clear
11:35 AM 76.3 °F - 71.2 °F 84% 29.87 in 10.0 mi SSE 17.3 mph - 0.02 in   Clear
11:55 AM 78.4 °F - 73.0 °F 83% 29.89 in 10.0 mi South 11.5 mph 16.1 mph 0.06 in   Clear
12:15 PM 79.3 °F - 74.1 °F 84% 29.88 in 10.0 mi South 10.4 mph - 0.09 in   Clear
12:35 PM 79.5 °F - 73.6 °F 82% 29.89 in 10.0 mi South 10.4 mph - 0.32 in   Clear
12:55 PM 81.9 °F 88.7 °F 75.4 °F 81% 29.91 in 10.0 mi South 13.8 mph - 0.32 in   Clear
1:15 PM 80.6 °F 85.9 °F 74.5 °F 82% 29.90 in 10.0 mi SSW 13.8 mph 17.3 mph N/A   Scattered Clouds
1:35 PM 79.3 °F - 74.3 °F 84% 29.90 in 10.0 mi SSW 8.1 mph - N/A   Mostly Cloudy
1:55 PM 80.6 °F 86.4 °F 75.6 °F 85% 29.89 in 10.0 mi SSW 4.6 mph - N/A   Mostly Cloudy
2:15 PM 80.1 °F 85.1 °F 75.0 °F 85% 29.87 in 10.0 mi SSE 3.5 mph - N/A   Scattered Clouds
2:35 PM 79.3 °F - 75.0 °F 87% 29.87 in 10.0 mi SE 3.5 mph - N/A   Clear
2:55 PM 81.9 °F 89.7 °F 77.0 °F 85% 29.87 in 10.0 mi SE 3.5 mph - N/A   Scattered Clouds
3:15 PM 81.9 °F 89.7 °F 77.0 °F 85% 29.87 in 10.0 mi SE 3.5 mph - N/A   Scattered Clouds
3:35 PM 81.9 °F 90.0 °F 77.2 °F 86% 29.86 in 10.0 mi ESE 4.6 mph - N/A   Clear
3:55 PM 82.0 °F 89.9 °F 76.6 °F 84% 29.85 in 10.0 mi East 6.9 mph - N/A   Scattered Clouds
4:15 PM 81.9 °F 89.7 °F 76.8 °F 85% 29.86 in 10.0 mi Calm Calm - N/A   Mostly Cloudy
4:24 PM 82.4 °F 90.9 °F 77.0 °F 84% 29.85 in 10.0 mi SE 4.6 mph - N/A   Mostly Cloudy
4:35 PM 81.9 °F 89.7 °F 76.8 °F 85% 29.85 in 10.0 mi Calm Calm - N/A   Mostly Cloudy
4:55 PM 81.9 °F 89.7 °F 77.0 °F 85% 29.85 in 10.0 mi SSW 3.5 mph - N/A   Mostly Cloudy
5:15 PM 81.9 °F 89.5 °F 76.6 °F 84% 29.85 in 10.0 mi SW 4.6 mph - N/A   Mostly Cloudy
5:35 PM 81.9 °F 89.2 °F 76.3 °F 83% 29.84 in 10.0 mi SSW 10.4 mph - N/A   Scattered Clouds
5:55 PM 80.6 °F 86.2 °F 75.2 °F 84% 29.84 in 10.0 mi SW 4.6 mph - N/A   Clear
6:15 PM 81.9 °F 88.9 °F 75.7 °F 82% 29.84 in 10.0 mi SW 4.6 mph - N/A   Clear
6:35 PM 81.9 °F 88.7 °F 75.6 °F 81% 29.85 in 10.0 mi Calm Calm - N/A   Scattered Clouds
6:55 PM 79.3 °F - 73.9 °F 83% 29.84 in 10.0 mi Calm Calm - N/A   Scattered Clouds
7:15 PM 79.3 °F - 74.5 °F 85% 29.84 in 10.0 mi Calm Calm - N/A   Clear
7:35 PM 79.3 °F - 75.2 °F 87% 29.84 in 10.0 mi Calm Calm - N/A   Clear
7:55 PM 79.3 °F - 74.8 °F 86% 29.84 in 10.0 mi Calm Calm - N/A   Clear
8:15 PM 77.0 °F - 74.3 °F 91% 29.83 in 7.0 mi East 3.5 mph - N/A   Clear
8:35 PM 76.8 °F - 74.1 °F 91% 29.84 in 7.0 mi Calm Calm - N/A   Clear
8:55 PM 74.3 °F - 72.1 °F 93% 29.84 in 7.0 mi Calm Calm - N/A   Clear
9:15 PM 74.3 °F - 72.5 °F 94% 29.84 in 5.0 mi SE 3.5 mph - N/A   Clear
9:35 PM 74.3 °F - 72.5 °F 94% 29.84 in 5.0 mi SSE 4.6 mph - N/A   Clear
9:55 PM 74.3 °F - 72.5 °F 94% 29.84 in 7.0 mi SSE 3.5 mph - N/A   Clear
10:15 PM 74.3 °F - 72.5 °F 94% 29.85 in 5.0 mi ESE 3.5 mph - N/A   Clear
10:35 PM 74.3 °F - 72.5 °F 94% 29.85 in 7.0 mi ESE 4.6 mph - N/A   Clear
10:55 PM 74.3 °F - 72.1 °F 93% 29.84 in 7.0 mi ESE 3.5 mph - N/A   Scattered Clouds
11:15 PM 74.3 °F - 72.1 °F 93% 29.84 in 5.0 mi ENE 4.6 mph - N/A   Scattered Clouds
11:35 PM 74.3 °F - 72.5 °F 94% 29.84 in 4.0 mi East 3.5 mph - N/A   Clear
11:55 PM 74.3 °F - 72.5 °F 94% 29.84 in 2.5 mi East 4.6 mph - N/A   Clear